Flag for Germany Weather past 2 weeks in Heilbronn, Baden-Württemberg, Germany

Now
64 °F

Low clouds.


Feels Like: 64 °F
Forecast: 41 / 56 °F
Wind: 2 mph from West

Location: Oehringen

Current Time: Sep 21, 2014 at 5:11:50 PM

Latest Report: Sep 21, 2014 at 4:00 PM


Visibility: 10 mi

Pressure: 29.93 "Hg

Humidity: 88%

Dew point: 60 °F

Location of HeilbronnLocation

Historic Weather in Heilbronn — Graph

°F

Heilbronn temperature yesterday

Maximum temperature yesterday: 72 °F (at 3:00 PM)
Minimum temperature yesterday: 58 °F (at 8:00 AM)
Average temperature yesterday: 64 °F

Past Weeks' High & Low Weather Summary

 TemperatureHumidityPressure
High79 °F (Sep 8, 5:00 PM)99% (Sep 12, 3:00 PM)30.16 "Hg (Sep 12, 3:00 PM)
Low49 °F (Sep 11, 7:00 AM)45% (Sep 10, 4:00 PM)29.84 "Hg (Sep 18, 4:00 PM)
Average62 °F83%29.99 "Hg
* Reported Sep 6 4:00 PM — Sep 21 4:00 PM, Heilbronn, Weather by CustomWeather, © 2014

Note: Actual official high and low records may vary slightly from our data, if they occured in-between our weather recording intervals... More about our weather records

Advertising

Heilbronn weather history for previous 24 hours

 ConditionsComfort  
Time TempWeatherWind HumidityBarometerVisibility
4:00 PM
Sep 21
64 °FLow clouds.2 mph88%29.93 "Hg10 mi
3:00 PM63 °FOvercast.5 mph91%29.94 "Hg9 mi
2:00 PM63 °FRain. Overcast.6 mph90%29.96 "Hg6 mi
1:00 PM64 °FOvercast.5 mph88%29.96 "Hg10 mi
12:00 PM62 °FLow clouds.5 mph93%29.97 "Hg6 mi
11:00 AM61 °FLow clouds.3 mph96%29.97 "Hg4 mi
10:00 AM60 °FDrizzle. Low clouds.2 mph98%29.97 "Hg3 mi
9:00 AM60 °FRain. Low clouds.1 mph98%29.97 "Hg1 mi
8:00 AM60 °FLight rain. Low clouds.1 mph98%29.97 "Hg2 mi
7:00 AM60 °FLow clouds.2 mph98%29.97 "Hg2 mi
6:00 AM60 °FLight rain. Overcast.1 mph98%29.96 "Hg2 mi
5:00 AM60 °FRain. Overcast.2 mph97%29.97 "Hg1 mi
4:00 AM60 °FLight rain. Overcast.1 mph97%29.99 "Hg2 mi
3:00 AM60 °FOvercast.1 mph94%29.99 "Hg9 mi
2:00 AM61 °FPassing clouds.1 mph90%29.99 "Hg14 mi
1:00 AM63 °FOvercast.2 mph84%30.00 "Hg25 mi
12:00 AM63 °FOvercast.5 mph90%30.01 "Hg11 mi
11:00 PM
Sep 20
63 °FPassing clouds.1 mph88%29.98 "Hg9 mi
10:00 PM65 °FPassing clouds.1 mph85%29.98 "Hg16 mi
9:00 PM66 °FPassing clouds.1 mph83%29.97 "Hg18 mi
8:00 PM69 °FOvercast.1 mph71%29.95 "Hg25 mi
Weather by CustomWeather, © 2014

See weather overviewHow to use our weather pages